Time,TemperatureF,DewpointF,PressureIn,WindDirection,WindDirectionDegrees,WindSpeedMPH,WindSpeedGustMPH,Humidity,HourlyPrecipIn,Conditions,Clouds,dailyrainin,SoftwareType,DateUTC
2013-07-10 00:01:00,61.0,54.0,29.99,South,175,0.0,-999.0,79,-99.99,,,-99.99,,2013-07-10 07:01:00,
2013-07-10 00:11:00,61.0,55.0,29.99,South,175,0.0,-999.0,81,-99.99,,,-99.99,,2013-07-10 07:11:00,
2013-07-10 00:22:00,61.0,55.0,29.99,South,175,0.0,-999.0,81,-99.99,,,-99.99,,2013-07-10 07:22:00,
2013-07-10 00:32:00,60.0,54.0,29.99,South,175,0.0,-999.0,81,-99.99,,,-99.99,,2013-07-10 07:32:00,
2013-07-10 00:43:00,60.0,55.0,29.99,South,175,0.0,-999.0,83,-99.99,,,-99.99,,2013-07-10 07:43:00,
2013-07-10 00:53:00,60.0,55.0,29.99,South,175,0.0,-999.0,83,-99.99,,,-99.99,,2013-07-10 07:53:00,
2013-07-10 01:01:00,59.0,54.0,29.99,South,175,0.0,-999.0,83,-99.99,,,-99.99,,2013-07-10 08:01:00,
2013-07-10 01:11:00,59.0,54.0,29.99,South,175,0.0,-999.0,84,-99.99,,,-99.99,,2013-07-10 08:11:00,
2013-07-10 01:22:00,59.0,54.0,29.99,South,175,0.0,-999.0,84,-99.99,,,-99.99,,2013-07-10 08:22:00,
2013-07-10 01:32:00,60.0,54.0,29.99,South,175,0.0,-999.0,82,-99.99,,,-99.99,,2013-07-10 08:32:00,
2013-07-10 01:53:00,59.0,54.0,29.99,South,175,0.0,-999.0,84,-99.99,,,-99.99,,2013-07-10 08:53:00,
2013-07-10 02:02:00,59.0,54.0,29.99,South,175,0.0,-999.0,85,-99.99,,,-99.99,,2013-07-10 09:02:00,
2013-07-10 02:12:00,58.0,54.0,29.99,South,176,0.0,-999.0,86,-99.99,,,-99.99,,2013-07-10 09:12:00,
2013-07-10 02:21:00,58.0,54.0,29.99,South,176,0.0,-999.0,86,-99.99,,,-99.99,,2013-07-10 09:21:00,
2013-07-10 02:32:00,58.0,54.0,29.99,South,176,0.0,-999.0,87,-99.99,,,-99.99,,2013-07-10 09:32:00,
2013-07-10 02:42:00,58.0,54.0,29.99,South,176,1.0,-999.0,88,-99.99,,,-99.99,,2013-07-10 09:42:00,
2013-07-10 02:52:00,58.0,54.0,29.99,South,176,1.0,-999.0,88,-99.99,,,-99.99,,2013-07-10 09:52:00,
2013-07-10 03:01:00,57.0,53.0,29.99,South,178,0.0,-999.0,88,-99.99,,,-99.99,,2013-07-10 10:01:00,
2013-07-10 03:13:00,57.0,53.0,29.99,South,178,0.0,-999.0,88,-99.99,,,-99.99,,2013-07-10 10:13:00,
2013-07-10 03:23:00,57.0,54.0,29.99,SSW,193,0.0,-999.0,89,-99.99,,,-99.99,,2013-07-10 10:23:00,
2013-07-10 03:32:00,57.0,54.0,29.99,SW,217,2.0,-999.0,91,-99.99,,,-99.99,,2013-07-10 10:32:00,
2013-07-10 03:50:00,-999.0,-99.9,29.99,SW,217,0.0,-999.0,-999,-99.99,,,-99.99,,2013-07-10 10:50:00,
2013-07-10 04:00:00,-999.0,-99.9,29.99,SW,217,0.0,-999.0,-999,-99.99,,,-99.99,,2013-07-10 11:00:00,
2013-07-10 04:11:00,56.0,54.0,29.99,SW,236,1.0,-999.0,92,-99.99,,,-99.99,,2013-07-10 11:11:00,
2013-07-10 04:22:00,56.0,54.0,29.99,SW,236,1.0,-999.0,92,-99.99,,,-99.99,,2013-07-10 11:22:00,
2013-07-10 04:33:00,56.0,54.0,29.99,SW,236,3.0,-999.0,92,-99.99,,,-99.99,,2013-07-10 11:33:00,
2013-07-10 04:43:00,55.0,53.0,29.99,SW,236,1.0,-999.0,93,-99.99,,,-99.99,,2013-07-10 11:43:00,
2013-07-10 04:52:00,55.0,53.0,29.99,SW,236,1.0,-999.0,93,-99.99,,,-99.99,,2013-07-10 11:52:00,
2013-07-10 05:01:00,55.0,53.0,29.99,WSW,242,3.0,-999.0,93,-99.99,,,-99.99,,2013-07-10 12:01:00,
2013-07-10 05:11:00,55.0,53.0,29.99,WSW,242,3.0,-999.0,93,-99.99,,,-99.99,,2013-07-10 12:11:00,
2013-07-10 05:22:00,54.0,52.0,29.99,SW,233,6.0,-999.0,93,-99.99,,,-99.99,,2013-07-10 12:22:00,
2013-07-10 05:33:00,54.0,52.0,29.99,WSW,238,6.0,-999.0,94,-99.99,,,-99.99,,2013-07-10 12:33:00,
2013-07-10 05:42:00,54.0,52.0,29.99,WSW,238,6.0,-999.0,94,-99.99,,,-99.99,,2013-07-10 12:42:00,
2013-07-10 05:53:00,54.0,52.0,29.99,WSW,248,3.0,-999.0,94,-99.99,,,-99.99,,2013-07-10 12:53:00,
2013-07-10 06:01:00,53.0,52.0,29.99,WSW,248,3.0,-999.0,95,-99.99,,,-99.99,,2013-07-10 13:01:00,
2013-07-10 06:11:00,53.0,52.0,29.99,WSW,248,3.0,-999.0,95,-99.99,,,-99.99,,2013-07-10 13:11:00,
2013-07-10 06:21:00,53.0,52.0,29.99,WSW,252,5.0,-999.0,95,-99.99,,,-99.99,,2013-07-10 13:21:00,
2013-07-10 06:32:00,53.0,52.0,30.00,WSW,243,6.0,-999.0,95,-99.99,,,-99.99,,2013-07-10 13:32:00,
2013-07-10 06:42:00,53.0,52.0,30.00,WSW,243,6.0,-999.0,95,-99.99,,,-99.99,,2013-07-10 13:42:00,
2013-07-10 06:52:00,53.0,52.0,30.00,WSW,242,8.0,-999.0,96,-99.99,,,-99.99,,2013-07-10 13:52:00,
2013-07-10 07:01:00,53.0,52.0,30.00,WSW,242,7.0,-999.0,96,-99.99,,,-99.99,,2013-07-10 14:01:00,
2013-07-10 07:11:00,53.0,52.0,30.00,WSW,242,7.0,-999.0,96,-99.99,,,-99.99,,2013-07-10 14:11:00,
2013-07-10 07:22:00,53.0,52.0,30.00,SW,223,7.0,-999.0,96,-99.99,,,-99.99,,2013-07-10 14:22:00,
2013-07-10 07:33:00,54.0,53.0,30.01,SSW,207,3.0,-999.0,96,-99.99,,,-99.99,,2013-07-10 14:33:00,
2013-07-10 07:43:00,54.0,53.0,30.01,SSW,207,3.0,-999.0,96,-99.99,,,-99.99,,2013-07-10 14:43:00,
2013-07-10 07:53:00,54.0,52.0,30.01,SW,219,6.0,-999.0,94,-99.99,,,-99.99,,2013-07-10 14:53:00,
2013-07-10 08:01:00,54.0,52.0,30.01,SW,219,6.0,-999.0,94,-99.99,,,-99.99,,2013-07-10 15:01:00,
2013-07-10 08:11:00,54.0,52.0,30.01,WSW,242,6.0,-999.0,94,-99.99,,,-99.99,,2013-07-10 15:11:00,
2013-07-10 08:22:00,55.0,53.0,30.01,SW,232,6.0,-999.0,92,-99.99,,,-99.99,,2013-07-10 15:22:00,
2013-07-10 08:34:00,55.0,53.0,30.01,SW,229,6.0,-999.0,92,-99.99,,,-99.99,,2013-07-10 15:34:00,
2013-07-10 08:42:00,55.0,53.0,30.01,SW,229,6.0,-999.0,92,-99.99,,,-99.99,,2013-07-10 15:42:00,
2013-07-10 08:52:00,55.0,52.0,30.02,WSW,242,7.0,-999.0,91,-99.99,,,-99.99,,2013-07-10 15:52:00,
2013-07-10 09:01:00,55.0,52.0,30.02,WSW,239,8.0,-999.0,91,-99.99,,,-99.99,,2013-07-10 16:01:00,
2013-07-10 09:11:00,55.0,52.0,30.02,WSW,239,8.0,-999.0,91,-99.99,,,-99.99,,2013-07-10 16:11:00,
2013-07-10 09:22:00,55.0,52.0,30.02,SSW,211,8.0,-999.0,91,-99.99,,,-99.99,,2013-07-10 16:22:00,
2013-07-10 09:33:00,55.0,52.0,30.03,SW,229,7.0,-999.0,91,-99.99,,,-99.99,,2013-07-10 16:33:00,
2013-07-10 09:44:00,55.0,52.0,30.03,SW,229,7.0,-999.0,91,-99.99,,,-99.99,,2013-07-10 16:44:00,
2013-07-10 09:53:00,55.0,52.0,30.03,WSW,250,9.0,-999.0,90,-99.99,,,-99.99,,2013-07-10 16:53:00,
2013-07-10 10:01:00,56.0,53.0,30.02,SW,224,7.0,-999.0,89,-99.99,,,-99.99,,2013-07-10 17:01:00,
2013-07-10 10:11:00,56.0,53.0,30.02,SW,224,7.0,-999.0,89,-99.99,,,-99.99,,2013-07-10 17:11:00,
2013-07-10 10:23:00,57.0,53.0,30.03,SW,229,7.0,-999.0,87,-99.99,,,-99.99,,2013-07-10 17:23:00,
2013-07-10 10:32:00,57.0,53.0,30.02,SW,226,7.0,-999.0,86,-99.99,,,-99.99,,2013-07-10 17:32:00,
2013-07-10 10:42:00,57.0,53.0,30.02,SW,226,7.0,-999.0,86,-99.99,,,-99.99,,2013-07-10 17:42:00,
2013-07-10 10:53:00,58.0,54.0,30.02,SW,224,7.0,-999.0,85,-99.99,,,-99.99,,2013-07-10 17:53:00,
2013-07-10 11:01:00,59.0,54.0,30.02,South,191,6.0,-999.0,83,-99.99,,,-99.99,,2013-07-10 18:01:00,
2013-07-10 11:11:00,59.0,54.0,30.02,South,191,6.0,-999.0,83,-99.99,,,-99.99,,2013-07-10 18:11:00,
2013-07-10 11:21:00,60.0,54.0,30.02,SW,234,6.0,-999.0,80,-99.99,,,-99.99,,2013-07-10 18:21:00,
2013-07-10 11:32:00,60.0,54.0,30.03,SSE,165,6.0,-999.0,82,-99.99,,,-99.99,,2013-07-10 18:32:00,
2013-07-10 11:44:00,60.0,54.0,30.03,SSE,165,6.0,-999.0,82,-99.99,,,-99.99,,2013-07-10 18:44:00,
2013-07-10 11:53:00,60.0,54.0,30.03,WSW,240,6.0,-999.0,81,-99.99,,,-99.99,,2013-07-10 18:53:00,
2013-07-10 12:01:00,60.0,54.0,30.03,SSW,207,7.0,-999.0,82,-99.99,,,-99.99,,2013-07-10 19:01:00,
2013-07-10 12:11:00,60.0,54.0,30.03,SSW,207,7.0,-999.0,82,-99.99,,,-99.99,,2013-07-10 19:11:00,
2013-07-10 12:21:00,60.0,54.0,30.03,SW,215,4.0,-999.0,82,-99.99,,,-99.99,,2013-07-10 19:21:00,
2013-07-10 12:32:00,61.0,55.0,30.02,South,175,3.0,-999.0,81,-99.99,,,-99.99,,2013-07-10 19:32:00,
2013-07-10 12:42:00,61.0,55.0,30.02,South,175,3.0,-999.0,81,-99.99,,,-99.99,,2013-07-10 19:42:00,
2013-07-10 12:53:00,61.0,55.0,30.02,WSW,252,7.0,-999.0,80,-99.99,,,-99.99,,2013-07-10 19:53:00,
2013-07-10 13:01:00,62.0,56.0,30.02,SW,223,5.0,-999.0,80,-99.99,,,-99.99,,2013-07-10 20:01:00,
2013-07-10 13:11:00,62.0,56.0,30.02,SW,223,5.0,-999.0,80,-99.99,,,-99.99,,2013-07-10 20:11:00,
2013-07-10 13:22:00,62.0,55.0,30.02,SW,230,5.0,-999.0,78,-99.99,,,-99.99,,2013-07-10 20:22:00,
2013-07-10 13:32:00,64.0,56.0,30.02,WSW,238,4.0,-999.0,75,-99.99,,,-99.99,,2013-07-10 20:32:00,
2013-07-10 13:43:00,64.0,56.0,30.02,WSW,238,4.0,-999.0,75,-99.99,,,-99.99,,2013-07-10 20:43:00,
2013-07-10 13:52:00,64.0,56.0,30.01,South,191,5.0,-999.0,76,-99.99,,,-99.99,,2013-07-10 20:52:00,
2013-07-10 14:01:00,64.0,57.0,30.01,WSW,244,3.0,-999.0,77,-99.99,,,-99.99,,2013-07-10 21:01:00,
2013-07-10 14:11:00,64.0,57.0,30.01,WSW,244,3.0,-999.0,77,-99.99,,,-99.99,,2013-07-10 21:11:00,
2013-07-10 14:21:00,64.0,56.0,30.01,SSW,204,3.0,-999.0,74,-99.99,,,-99.99,,2013-07-10 21:21:00,
2013-07-10 14:32:00,65.0,57.0,30.01,WSW,240,3.0,-999.0,76,-99.99,,,-99.99,,2013-07-10 21:32:00,
2013-07-10 14:41:00,65.0,57.0,30.01,WSW,240,3.0,-999.0,76,-99.99,,,-99.99,,2013-07-10 21:41:00,
2013-07-10 14:52:00,65.0,56.0,30.00,South,178,3.0,-999.0,73,-99.99,,,-99.99,,2013-07-10 21:52:00,
2013-07-10 15:01:00,64.0,56.0,29.99,SSE,165,4.0,-999.0,75,-99.99,,,-99.99,,2013-07-10 22:01:00,
2013-07-10 15:11:00,64.0,56.0,29.99,SSE,165,4.0,-999.0,75,-99.99,,,-99.99,,2013-07-10 22:11:00,
2013-07-10 15:21:00,65.0,57.0,29.99,SE,138,2.0,-999.0,75,-99.99,,,-99.99,,2013-07-10 22:21:00,
2013-07-10 15:33:00,66.0,57.0,29.98,South,185,2.0,-999.0,72,-99.99,,,-99.99,,2013-07-10 22:33:00,
2013-07-10 15:42:00,66.0,57.0,29.98,South,185,2.0,-999.0,72,-99.99,,,-99.99,,2013-07-10 22:42:00,
2013-07-10 15:53:00,66.0,57.0,29.98,ESE,102,2.0,-999.0,74,-99.99,,,-99.99,,2013-07-10 22:53:00,
2013-07-10 16:01:00,67.0,57.0,29.98,North,2,1.0,-999.0,71,-99.99,,,-99.99,,2013-07-10 23:01:00,
2013-07-10 16:11:00,67.0,57.0,29.98,North,2,1.0,-999.0,71,-99.99,,,-99.99,,2013-07-10 23:11:00,
2013-07-10 16:21:00,67.0,57.0,29.97,NNE,23,1.0,-999.0,71,-99.99,,,-99.99,,2013-07-10 23:21:00,
2013-07-10 16:32:00,68.0,57.0,29.96,NNW,331,1.0,-999.0,69,-99.99,,,-99.99,,2013-07-10 23:32:00,
2013-07-10 16:42:00,68.0,57.0,29.96,NNW,331,1.0,-999.0,69,-99.99,,,-99.99,,2013-07-10 23:42:00,
2013-07-10 16:52:00,68.0,57.0,29.96,SSE,147,2.0,-999.0,69,-99.99,,,-99.99,,2013-07-10 23:52:00,
2013-07-10 17:01:00,68.0,57.0,29.95,NNE,21,1.0,-999.0,69,-99.99,,,-99.99,,2013-07-11 00:01:00,
2013-07-10 17:11:00,68.0,57.0,29.95,NNE,21,1.0,-999.0,69,-99.99,,,-99.99,,2013-07-11 00:11:00,
2013-07-10 17:22:00,68.0,57.0,29.95,SE,145,1.0,-999.0,69,-99.99,,,-99.99,,2013-07-11 00:22:00,
2013-07-10 17:32:00,68.0,57.0,29.95,SE,145,1.0,-999.0,69,-99.99,,,-99.99,,2013-07-11 00:32:00,
2013-07-10 17:42:00,67.0,57.0,29.95,SSE,159,1.0,-999.0,71,-99.99,,,-99.99,,2013-07-11 00:42:00,
2013-07-10 17:52:00,67.0,57.0,29.95,SSE,159,1.0,-999.0,71,-99.99,,,-99.99,,2013-07-11 00:52:00,
2013-07-10 18:01:00,68.0,57.0,29.94,North,10,0.0,-999.0,69,-99.99,,,-99.99,,2013-07-11 01:01:00,
2013-07-10 18:11:00,68.0,57.0,29.94,North,10,0.0,-999.0,69,-99.99,,,-99.99,,2013-07-11 01:11:00,
2013-07-10 18:22:00,68.0,57.0,29.93,North,352,1.0,-999.0,68,-99.99,,,-99.99,,2013-07-11 01:22:00,
2013-07-10 18:32:00,68.0,57.0,29.93,North,352,1.0,-999.0,68,-99.99,,,-99.99,,2013-07-11 01:32:00,
2013-07-10 18:43:00,67.0,57.0,29.93,SE,140,1.0,-999.0,71,-99.99,,,-99.99,,2013-07-11 01:43:00,
2013-07-10 18:52:00,67.0,57.0,29.92,ESE,122,2.0,-999.0,71,-99.99,,,-99.99,,2013-07-11 01:52:00,
2013-07-10 19:01:00,67.0,57.0,29.92,ESE,122,2.0,-999.0,71,-99.99,,,-99.99,,2013-07-11 02:01:00,
2013-07-10 19:11:00,67.0,57.0,29.92,SSE,164,1.0,-999.0,70,-99.99,,,-99.99,,2013-07-11 02:11:00,
2013-07-10 19:22:00,67.0,57.0,29.92,SSE,164,1.0,-999.0,70,-99.99,,,-99.99,,2013-07-11 02:22:00,
2013-07-10 19:32:00,67.0,57.0,29.92,SSE,160,0.0,-999.0,71,-99.99,,,-99.99,,2013-07-11 02:32:00,
2013-07-10 19:43:00,66.0,56.0,29.92,SE,140,1.0,-999.0,71,-99.99,,,-99.99,,2013-07-11 02:43:00,
2013-07-10 19:53:00,66.0,56.0,29.92,SE,140,1.0,-999.0,71,-99.99,,,-99.99,,2013-07-11 02:53:00,
2013-07-10 20:01:00,66.0,56.0,29.92,SE,134,0.0,-999.0,71,-99.99,,,-99.99,,2013-07-11 03:01:00,
2013-07-10 20:11:00,65.0,55.0,29.92,SSE,155,0.0,-999.0,71,-99.99,,,-99.99,,2013-07-11 03:11:00,
2013-07-10 20:21:00,65.0,55.0,29.92,SSE,155,0.0,-999.0,71,-99.99,,,-99.99,,2013-07-11 03:21:00,
2013-07-10 20:33:00,65.0,55.0,29.92,SSE,155,0.0,-999.0,71,-99.99,,,-99.99,,2013-07-11 03:33:00,
2013-07-10 20:42:00,64.0,55.0,29.91,SSE,155,0.0,-999.0,73,-99.99,,,-99.99,,2013-07-11 03:42:00,
2013-07-10 20:52:00,64.0,56.0,29.91,SSE,155,0.0,-999.0,74,-99.99,,,-99.99,,2013-07-11 03:52:00,
2013-07-10 21:01:00,64.0,56.0,29.91,SSE,155,0.0,-999.0,74,-99.99,,,-99.99,,2013-07-11 04:01:00,
2013-07-10 21:11:00,63.0,55.0,29.91,SSE,155,0.0,-999.0,74,-99.99,,,-99.99,,2013-07-11 04:11:00,
2013-07-10 21:22:00,63.0,55.0,29.92,SSE,155,1.0,-999.0,75,-99.99,,,-99.99,,2013-07-11 04:22:00,
2013-07-10 21:32:00,63.0,55.0,29.92,SSE,155,1.0,-999.0,75,-99.99,,,-99.99,,2013-07-11 04:32:00,
2013-07-10 21:42:00,62.0,54.0,29.92,SSE,155,0.0,-999.0,76,-99.99,,,-99.99,,2013-07-11 04:42:00,
2013-07-10 21:53:00,62.0,54.0,29.93,SSE,155,0.0,-999.0,76,-99.99,,,-99.99,,2013-07-11 04:53:00,
2013-07-10 22:01:00,62.0,54.0,29.93,SSE,155,0.0,-999.0,76,-99.99,,,-99.99,,2013-07-11 05:01:00,
2013-07-10 22:12:00,61.0,54.0,29.93,SSE,155,0.0,-999.0,77,-99.99,,,-99.99,,2013-07-11 05:12:00,
2013-07-10 22:32:00,60.0,53.0,29.93,SSE,155,0.0,-999.0,78,-99.99,,,-99.99,,2013-07-11 05:32:00,
2013-07-10 22:43:00,59.0,52.0,29.94,SSE,155,0.0,-999.0,79,-99.99,,,-99.99,,2013-07-11 05:43:00,
2013-07-10 22:52:00,59.0,52.0,29.94,SSE,155,0.0,-999.0,79,-99.99,,,-99.99,,2013-07-11 05:52:00,
2013-07-10 23:01:00,58.0,52.0,29.94,SSE,155,0.0,-999.0,80,-99.99,,,-99.99,,2013-07-11 06:01:00,
2013-07-10 23:11:00,58.0,53.0,29.94,SSE,155,0.0,-999.0,83,-99.99,,,-99.99,,2013-07-11 06:11:00,
2013-07-10 23:32:00,57.0,51.0,29.94,SSE,155,0.0,-999.0,81,-99.99,,,-99.99,,2013-07-11 06:32:00,
2013-07-10 23:43:00,57.0,52.0,29.95,South,173,0.0,-999.0,82,-99.99,,,-99.99,,2013-07-11 06:43:00,
2013-07-10 23:52:00,56.0,51.0,29.95,SSE,161,0.0,-999.0,82,-99.99,,,-99.99,,2013-07-11 06:52:00,